sat.trackr.live / text

‹ back to catalog

STARLINK-4774

NORAD 56138 · 2023-046AY

PAYLOAD ACTIVE UNKNOWN

§ Identity

Operator
Country
US
Launch date
2023-03-29
Launch site
AFETR
Launch vehicle
Mass (kg)
RCS (m²)

Purposes: comms

External: N2YO · Heavens-Above · Gunter

§ Orbital elements

Epoch: 2026-05-25T03:56:03.280704Z

Period
94.27 min
Inclination
43.0043°
Eccentricity
0.0001017
Mean motion
15.27582180 rev/d
Perigee alt
482.3 km
Apogee alt
483.7 km
Semi-major
6,861.2 km
B*
3.9683e-6
RAAN
75.2814°
Arg perigee
267.6799°
Mean anomaly
92.3937°
Rev number
17,389

§ Raw data

STARLINK-47741 56138U 23046AY  26145.16392686 -.00000153  00000+0  39683-5 0  99902 56138  43.0043  75.2814 0001017 267.6799  92.3937 15.27582180173891

JSON: /api/v1/satellites/56138 · /tle

For live sub-satellite position, see the globe view (requires WebGL).

§ Visibility from observer

Set your observer location to see the next 7 days of passes ≥ 10°. The values pass through the URL so the page stays shareable.

No JS? Fill the form by hand. The geolocation button needs JavaScript.